Location: Salamanca
(40.9670°N, 5.6500°W)
Time: 03:37:44
(UTC+01:00)

Daily predictions for brighter satellites

Satellite Brightness Start Highest point End
(mag) Time Altitude Azimuth Time Altitude Azimuth Time Altitude Azimuth
Cosmos 1980 Rocket 4.1 05:09:22 24° ESE 05:09:22 24° ESE 05:11:51 10° SE
USA 267 3.9 05:16:03 10° NE 05:20:40 50° NE 05:20:40 50° NE
Meteor 2-4 Rocket 4.4 05:40:44 49° E 05:40:44 49° E 05:45:55 10° SSE
CZ-4C R/B 2.8 05:46:01 52° E 05:46:01 52° E 05:51:08 10° NE
SL-16 R/B 3.7 05:45:54 25° NNE 05:47:50 31° ENE 05:52:49 10° ESE
COSMO-SKYMED 1 4.5 05:48:29 10° SE 05:52:08 27° ENE 05:53:01 25° NE
Cosmos 2322 Rocket 3.6 05:50:40 25° NNE 05:52:49 33° ENE 05:57:54 10° ESE
USA 234 3.8 05:50:51 10° ESE 05:57:06 50° NNE 05:58:44 41° N
Meteor 1-11 Rocket 3.8 05:52:36 10° S 05:58:32 81° E 06:04:23 10° NNE
Cosmos 2180 Rocket 4.4 05:59:56 85° NNW 06:00:06 88° W 06:06:21 10° S
Okean-O 4.2 06:00:24 10° NNE 06:04:28 34° E 06:08:29 10° SSE
SeaSat 1 2.6 06:10:23 10° NNE 06:14:31 63° NNE 06:14:31 63° NNE
Cosmos 2082 Rocket 4.3 06:19:28 13° N 06:19:28 13° N 06:20:15 10° N
Meteor 1-5 Rocket 4.2 06:11:17 10° S 06:16:42 75° E 06:22:01 10° NNE
CZ-2C R/B 4.0 06:19:36 10° NNE 06:23:56 33° E 06:28:08 10° SSE
Meteor 1-4 Rocket 3.9 06:20:28 10° SSE 06:24:02 42° E 06:27:39 10° NNE
BREEZE-M DEB (TANK) 4.4 06:25:51 23° ESE 06:25:51 23° ESE 06:27:39 10° ENE
Nadezhda 4 Rocket 3.8 06:21:10 10° S 06:27:19 83° W 06:33:28 10° N
EO 1 Del DPAF 3.7 06:27:17 10° SSE 06:31:01 57° ENE 06:31:49 46° NNE
NOAA 6 4.0 06:30:57 10° NNE 06:36:06 85° E 06:41:15 10° SSW
deb Kosmos-1763 4.1 06:40:17 73° NNE 06:40:17 73° NNE 06:43:42 10° NNE
SKYMED 2 3.5 06:35:41 10° SSE 06:40:01 89° NE 06:41:37 39° NNW
Meteor 2-20 Rocket 4.3 06:36:47 10° SSW 06:42:49 62° W 06:48:51 10° N
Cosmos 192 4.2 06:40:53 10° SSW 06:45:46 74° WNW 06:50:41 10° NNE
Cosmos 1500 3.4 06:42:29 10° S 06:46:19 69° E 06:50:08 10° NNE
Cosmos 773 Rocket 3.9 06:42:16 10° SSW 06:47:19 62° WNW 06:52:28 10° NNE
Landsat 4 4.4 06:44:03 10° S 06:46:44 39° SSW 06:46:44 39° SSW
Cosmos 2360 Rocket 3.4 06:43:25 10° N 06:48:43 39° ENE 06:53:59 10° SE
Cosmos 1980 Rocket 3.2 06:51:12 27° WSW 06:51:12 27° WSW 06:55:04 10° SSW
Meteor 1-23 Rocket 4.2 06:49:27 22° NNW 06:52:58 58° W 06:58:23 10° S
BREEZE-M DEB (TANK) 3.9 06:55:06 25° NW 06:58:36 39° N 07:01:41 10° ENE
Cosmos 1680 Rocket 3.7 06:55:04 10° S 07:00:14 71° ESE 07:05:26 10° NNE
BREEZE-M DEB (TANK) 1.8 07:04:01 69° NNW 07:04:02 69° NNW 07:07:29 10° ENE
USA 267 3.9 06:59:24 10° NE 07:05:12 36° NNW 07:08:02 25° WNW
IDEFIX/ARIANE 42P 2.5 07:00:33 10° N 07:05:44 70° WNW 07:10:55 10° SSW
Cosmos 1092 Rocket 4.0 07:03:21 10° SSW 07:09:20 56° W 07:15:23 10° N
Cosmos 389 Rocket 3.9 07:07:55 10° SSE 07:11:20 41° E 07:14:44 10° NNE
Cosmos 1025 Rocket 3.0 07:08:17 16° NNW 07:11:30 58° W 07:15:42 10° S
Okean 1-7 Rocket 3.5 07:07:17 10° N 07:11:50 81° W 07:16:23 10° S
CZ-4 R/B 3.8 07:12:39 10° NE 07:16:16 27° E 07:19:53 10° SSE
Cosmos 1666 3.8 07:14:50 10° SSE 07:18:30 46° E 07:22:10 10° NNE
Cosmos 2195 Rocket 4.5 07:13:17 10° SSW 07:19:32 67° W 07:25:47 10° N
ATLAS 5 CENTAUR R/B 4.3 07:15:55 10° N 07:20:09 20° NE 07:24:41 10° E
Cosmos 2026 Rocket 3.9 07:16:03 10° SSW 07:22:17 73° W 07:28:40 10° N
Cosmos 1515 4.5 07:22:32 25° WNW 07:23:40 30° W 07:27:02 10° SSW
Thor Agena Rocket 3.6 07:21:17 10° SSE 07:26:18 82° ENE 07:31:25 10° NNW
Cosmos 1655 Rocket 4.0 07:20:30 10° S 07:26:44 87° E 07:33:03 10° N
COSMO-SKYMED 1 3.6 07:24:34 10° SSW 07:28:13 26° W 07:30:14 19° NW
SL-16 R/B 2.7 07:27:49 15° NW 07:31:58 38° WSW 07:37:10 10° S
Cosmos 923 Rocket 4.2 07:27:18 10° SW 07:32:19 46° WNW 07:37:20 10° N
Cosmos 1553 Rocket 4.1 07:26:07 10° N 07:32:23 82° E 07:38:30 10° S
CZ-4C R/B 3.2 07:31:17 17° W 07:34:23 27° NW 07:39:31 10° NNE
Cosmos 1975 2.9 07:31:48 10° SSW 07:35:41 53° W 07:39:36 10° N
Okean 2 4.3 07:34:06 14° NW 07:36:50 28° W 07:40:20 10° SSW
Cosmos 2322 Rocket 2.8 07:32:31 14° NW 07:36:50 36° WSW 07:41:58 10° S
SJ-12 4.0 07:34:26 10° N 07:38:24 53° WNW 07:42:20 10° SSW
USA 234 3.6 07:33:41 10° SSE 07:40:03 53° SW 07:46:05 12° NW
CSL-04 Rocket 4.0 07:34:43 10° NNE 07:40:18 74° ESE 07:45:48 10° S
Okean-O 3.7 07:37:19 10° NNW 07:40:44 22° WNW 07:44:07 10° WSW
Aureole 2 Rocket 4.2 07:37:52 10° N 07:40:44 27° ENE 07:43:25 10° SE
Aureole 1 Rocket 4.4 07:38:08 10° SSE 07:40:51 30° ESE 07:43:54 10° NE
APEX 3.6 07:37:50 10° SW 07:41:02 39° WNW 07:45:04 10° NNE
Meteor 1-12 Rocket 4.2 07:35:41 10° SSW 07:41:23 76° W 07:47:03 10° N
MSX 3.9 07:35:50 10° N 07:41:27 56° WNW 07:47:01 10° SSW
Okean 1 Rocket 4.3 07:41:15 10° WSW 07:44:31 20° WNW 07:47:49 10° NNW
SJ-7 4.3 07:43:06 10° N 07:47:10 77° WNW 07:51:16 10° SSW
Cosmos 2112 Rocket 4.1 07:43:36 10° SW 07:48:36 50° WNW 07:53:40 10° N
Cosmos 2237 4.3 07:44:29 10° NNW 07:50:12 81° ENE 07:55:53 10° SSE
SeaSat 1 4.1 07:49:41 10° NNW 07:52:09 14° NW 07:54:20 11° WNW
Cosmos 2056 Rocket 3.6 07:50:43 10° NNW 07:55:52 81° ENE 08:01:00 10° SSE
Meteor 1-4 Rocket 4.5 07:57:41 10° W 07:59:23 13° WNW 08:01:04 10° NW
CZ-2C R/B 3.3 07:58:05 10° NNW 08:02:01 26° WNW 08:05:51 10° WSW
ATLAS CENTAUR R/B 1.0 07:58:21 10° SW 08:02:03 79° WNW 08:05:45 10° NNE
Cosmos 2322 3.7 07:56:35 10° NNW 08:02:14 71° WSW 08:07:50 10° SSE
Cosmos 1626 Rocket 4.0 07:59:09 10° N 08:03:27 65° E 08:07:46 10° SSE
Cosmos 1892 Rocket 4.0 08:00:26 10° NNW 08:04:31 39° W 08:08:33 10° SSW
YAOGAN 1 3.1 08:00:18 10° NNE 08:04:37 65° ESE 08:08:54 10° S
Cosmos 1743 3.3 08:02:09 10° SW 08:05:39 35° WNW 08:09:12 10° N
Lacrosse 5 3.2 08:02:02 10° SSW 08:06:50 45° SE 08:11:39 10° NE
Cosmos 1833 4.5 08:02:06 10° SW 08:07:24 44° WNW 08:12:44 10° NNE
Cosmos 1484 Rocket 3.2 08:06:18 10° N 08:09:55 38° WNW 08:13:27 10° SW
Cosmos 1842 3.3 08:06:20 10° N 08:10:18 89° WNW 08:14:16 10° S
AQUARIUS 4.3 08:08:43 10° N 08:13:06 53° WNW 08:17:27 10° SSW
Ariane Rocket 3.1 08:11:27 10° N 08:16:25 58° WNW 08:21:22 10° SSW
CORIOLIS 4.1 08:11:58 10° N 08:17:18 70° WNW 08:22:36 10° SSW
